MSC Mandraki — SZUH — position and weather

sailwx.info

Track history (hours):
 
Tides and Currents Weather Stations Pressure Air Temp Water Temp Dewpoint Dewpoint Depression Visibility Wind Speed Wind Dir Waves Ship Positions

MSC Mandraki

Last reported at 2014-Jul-23 23:33 UTC. Time now 2014-Jul-24 05:52 UTC.
Position N 48°55' W 005°19'.

Length 294 m; draft 10.2 m.

Type: Ship. MMSI: 240265000.

Date/timePositionNaut miles runAvg speedWind from/ knotsBaromVisibWave heightAir tempDewpointWater temp
2014-Jul-23 23:33N 48°55' W 005°19'5116.6
2014-Jul-23 20:30N 48°13' W 006°02'1616.6
2014-Jul-23 19:33N 47°59' W 006°13'2016.2
2014-Jul-23 18:20N 47°42' W 006°27'56416.2
2014-Jul-22 07:29N 38°37' W 009°49'1616.7
2014-Jul-22 06:33N 38°26' W 009°35'1716.9
2014-Jul-22 05:33N 38°13' W 009°21'1717.4
2014-Jul-22 04:33N 38°01' W 009°05'1313.1
2014-Jul-22 03:33N 37°55' W 008°50'1 0.8
2014-Jul-22 02:31N 37°56' W 008°51'0 0.0
2014-Jul-22 01:31N 37°56' W 008°51'0 0.0
2014-Jul-22 00:31N 37°56' W 008°51'0 0.0
2014-Jul-21 23:31N 37°56' W 008°51'0 0.0
2014-Jul-21 22:31N 37°56' W 008°51'0 0.0
2014-Jul-21 21:31N 37°56' W 008°51'0 0.0
2014-Jul-21 20:31N 37°56' W 008°51'0 0.0
2014-Jul-21 20:16N 37°56' W 008°51'0 0.0
2014-Jul-21 19:31N 37°56' W 008°51'0 0.0
2014-Jul-21 18:31N 37°56' W 008°51'0 0.0
2014-Jul-21 17:31N 37°56' W 008°51'0 0.0
2014-Jul-21 16:31N 37°56' W 008°51'0 0.0
2014-Jul-21 15:31N 37°56' W 008°51'0 0.0
2014-Jul-21 14:33N 37°56' W 008°51'1 0.6
2014-Jul-21 13:33N 37°55' W 008°50'9 9.2
2014-Jul-21 12:33N 37°47' W 008°56'1716.7
2014-Jul-21 11:33N 37°32' W 009°04'1717.2
2014-Jul-21 10:33N 37°16' W 009°13'1717.2
2014-Jul-21 09:33N 37°00' W 009°21'3715.3
2014-Jul-21 07:08N 36°37' W 008°44'1016.5
2014-Jul-21 06:33N 36°35' W 008°33'1717.2
2014-Jul-21 05:34N 36°29' W 008°13'13816.4
2014-Jul-20 21:09N 35°60' W 005°25'29315.7
2014-Jul-20 02:29N 36°49' E 000°34'5115.0
2014-Jul-19 23:06N 36°58' E 001°36'1515.9
2014-Jul-19 22:10N 37°01' E 001°54'5916.4
2014-Jul-19 18:33N 37°10' E 003°08'1917.0
2014-Jul-19 17:25N 37°13' E 003°32'1517.5
2014-Jul-19 16:33N 37°16' E 003°50'1817.5
2014-Jul-19 15:33N 37°18' E 004°12'1817.7
2014-Jul-19 14:33N 37°20' E 004°34'4217.7
2014-Jul-19 12:10N 37°25' E 005°27'4617.3
2014-Jul-19 09:30N 37°30' E 006°25'1817.7
2014-Jul-19 08:28N 37°32' E 006°47'5417.2
2014-Jul-19 05:19N 37°39' E 007°56'18216.8
2014-Jul-18 18:29N 37°16' E 011°42'3517.2
2014-Jul-18 16:29N 37°01' E 012°21'1516.3
2014-Jul-18 15:33N 36°54' E 012°38'1616.4
2014-Jul-18 14:33N 36°47' E 012°57'1616.3
2014-Jul-18 13:33N 36°42' E 013°16'1717.2
2014-Jul-18 12:33N 36°34' E 013°35'1717.4
2014-Jul-18 11:33N 36°28' E 013°55'1717.0
2014-Jul-18 10:33N 36°26' E 014°16'1717.2
2014-Jul-18 09:33N 36°26' E 014°38'1716.7
2014-Jul-18 08:33N 36°24' E 014°58'43616.1
2014-Jul-17 05:27N 37°24' E 023°59'1818.2
2014-Jul-17 04:29N 37°39' E 024°12'1818.1
2014-Jul-17 03:31N 37°51' E 024°28'  
Track history (hours):
 
Tides and Currents Weather Stations Pressure Air Temp Water Temp Dewpoint Dewpoint Depression Visibility Wind Speed Wind Dir Waves Ship Positions

MSC Mandraki

Last reported at 2014-Jul-23 23:33 UTC. Time now 2014-Jul-24 05:52 UTC.
Position N 48°55' W 005°19'.

Length 294 m; draft 10.2 m.

Type: Ship. MMSI: 240265000.

Date/timePositionNaut miles runAvg speedWind from/ knotsBaromVisibWave heightAir tempDewpointWater temp
2014-Jul-23 23:33N 48°55' W 005°19'5116.6
2014-Jul-23 20:30N 48°13' W 006°02'1616.6
2014-Jul-23 19:33N 47°59' W 006°13'2016.2
2014-Jul-23 18:20N 47°42' W 006°27'56416.2
2014-Jul-22 07:29N 38°37' W 009°49'1616.7
2014-Jul-22 06:33N 38°26' W 009°35'1716.9
2014-Jul-22 05:33N 38°13' W 009°21'1717.4
2014-Jul-22 04:33N 38°01' W 009°05'1313.1
2014-Jul-22 03:33N 37°55' W 008°50'1 0.8
2014-Jul-22 02:31N 37°56' W 008°51'0 0.0
2014-Jul-22 01:31N 37°56' W 008°51'0 0.0
2014-Jul-22 00:31N 37°56' W 008°51'0 0.0
2014-Jul-21 23:31N 37°56' W 008°51'0 0.0
2014-Jul-21 22:31N 37°56' W 008°51'0 0.0
2014-Jul-21 21:31N 37°56' W 008°51'0 0.0
2014-Jul-21 20:31N 37°56' W 008°51'0 0.0
2014-Jul-21 20:16N 37°56' W 008°51'0 0.0
2014-Jul-21 19:31N 37°56' W 008°51'0 0.0
2014-Jul-21 18:31N 37°56' W 008°51'0 0.0
2014-Jul-21 17:31N 37°56' W 008°51'0 0.0
2014-Jul-21 16:31N 37°56' W 008°51'0 0.0
2014-Jul-21 15:31N 37°56' W 008°51'0 0.0
2014-Jul-21 14:33N 37°56' W 008°51'1 0.6
2014-Jul-21 13:33N 37°55' W 008°50'9 9.2
2014-Jul-21 12:33N 37°47' W 008°56'1716.7
2014-Jul-21 11:33N 37°32' W 009°04'1717.2
2014-Jul-21 10:33N 37°16' W 009°13'1717.2
2014-Jul-21 09:33N 37°00' W 009°21'3715.3
2014-Jul-21 07:08N 36°37' W 008°44'1016.5
2014-Jul-21 06:33N 36°35' W 008°33'1717.2
2014-Jul-21 05:34N 36°29' W 008°13'13816.4
2014-Jul-20 21:09N 35°60' W 005°25'29315.7
2014-Jul-20 02:29N 36°49' E 000°34'5115.0
2014-Jul-19 23:06N 36°58' E 001°36'1515.9
2014-Jul-19 22:10N 37°01' E 001°54'5916.4
2014-Jul-19 18:33N 37°10' E 003°08'1917.0
2014-Jul-19 17:25N 37°13' E 003°32'1517.5
2014-Jul-19 16:33N 37°16' E 003°50'1817.5
2014-Jul-19 15:33N 37°18' E 004°12'1817.7
2014-Jul-19 14:33N 37°20' E 004°34'4217.7
2014-Jul-19 12:10N 37°25' E 005°27'4617.3
2014-Jul-19 09:30N 37°30' E 006°25'1817.7
2014-Jul-19 08:28N 37°32' E 006°47'5417.2
2014-Jul-19 05:19N 37°39' E 007°56'18216.8
2014-Jul-18 18:29N 37°16' E 011°42'3517.2
2014-Jul-18 16:29N 37°01' E 012°21'1516.3
2014-Jul-18 15:33N 36°54' E 012°38'1616.4
2014-Jul-18 14:33N 36°47' E 012°57'1616.3
2014-Jul-18 13:33N 36°42' E 013°16'1717.2
2014-Jul-18 12:33N 36°34' E 013°35'1717.4
2014-Jul-18 11:33N 36°28' E 013°55'1717.0
2014-Jul-18 10:33N 36°26' E 014°16'1717.2
2014-Jul-18 09:33N 36°26' E 014°38'1716.7
2014-Jul-18 08:33N 36°24' E 014°58'43616.1
2014-Jul-17 05:27N 37°24' E 023°59'1818.2
2014-Jul-17 04:29N 37°39' E 024°12'1818.1
2014-Jul-17 03:31N 37°51' E 024°28'  

Dump ship's entire track history